Location: *
(40.4000°N, 15.1200°E)
Time: 04:13:15
(UTC+00:00)

Aureole 1 Rocket - Pass Details

Date: 09 April 2020
Orbit: 379 x 1379 km, 73.9° (Epoch: 27 May)

Event Time Altitude Azimuth Distance (km) Brightness Sun altitude
Rises 18:31:19 0° 200° (SSW) 4,264 7.3 -11.5°
Reaches altitude 10° 18:34:21 10° 202° (SSW) 3,201 6.7 -12.1°
Maximum altitude 18:42:00 80° 289° (WNW) 1,073 4.3 -13.4°
Drops below altitude 10° 18:47:59 10° 17° (NNE) 2,535 6.3 -14.5°
Sets 18:50:10 0° 18° (NNE) 3,335 6.9 -14.8°
